Preview of NWS' New Version of Forecast
This preview is not operational and should not be used for support decisions.

Regional Weather Roundup (RWR)

Issued by National Weather Service (NWS)

                            
000
ASUS46 KPQR 192110
RWROR 

OREGON REGIONAL WEATHER ROUNDUP
NATIONAL WEATHER SERVICE PORTLAND OR
200 PM PDT TUE MAR 19 2019

NOTE: "FAIR" INDICATES FEW OR NO CLOUDS BELOW 12,000 FEET WITH
NO SIGNIFICANT WEATHER AND/OR OBSTRUCTIONS TO VISIBILITY.

ORZ001>013-192200-
NORTHWEST OREGON

  
CITY           SKY/WX    TMP DP  RH WIND       PRES   REMARKS
ASTORIA        PTSUNNY   73  34  23 E16       29.91F                  
TILLAMOOK      PTSUNNY   73  36  25 N12G18    29.91F                  
NEWPORT        MOSUNNY   77  37  24 S17G24    29.91R                  
PORTLAND       PTSUNNY   69  34  27 E17       29.96F                  
VANCOUVER WA   MOSUNNY   70  31  23 E15G21    29.97F                  
SCAPPOOSE      MOSUNNY   75  33  21 SE14      29.98F                  
HILLSBORO      PTSUNNY   68  32  26 E16G28    29.97F                  
AURORA         MOSUNNY   76  33  21 N14       29.93F                  
MCMINNVILLE    PTSUNNY   73  39  29 N13       29.93F                  
SALEM          MOSUNNY   76  37  24 N8        29.90F                  
CORVALLIS      MOSUNNY   72  41  32 NE14      29.90F                  
EUGENE         PTSUNNY   69  44  40 N10       29.89F                  
$$

ORZ021-028-192200-
SOUTHWEST OREGON

  
CITY           SKY/WX    TMP DP  RH WIND       PRES   REMARKS
NORTH BEND     MOSUNNY   54  49  83 NW8       29.92S                  
BROOKINGS      PTSUNNY   64  29  26 VRB3      29.88F                  
ROSEBURG       MOSUNNY   72  44  36 SW6       29.84F                  
SEXTON SUMMIT  CLOUDY    59  34  39 VRB5      29.92F                  
GRANTS PASS    FAIR      64  36  34 CALM      29.88F                  
MEDFORD        CLOUDY    71  33  24 NW8       29.84F                  
$$

ORZ014>016-041-192200-
COLUMBIA GORGE

  
CITY           SKY/WX    TMP DP  RH WIND       PRES   REMARKS
TROUTDALE      MOSUNNY   63  35  35 E29G36    29.99F                  
HOOD RIVER     MOSUNNY   55  34  44 E12       30.17F                  
THE DALLES     MOSUNNY   55  37  50 VRB6      30.19F                  
$$

ORZ029>031-041-044-049-050-061>064-502-503-505>511-192200-
EASTERN OREGON

  
CITY           SKY/WX    TMP DP  RH WIND       PRES   REMARKS
MADRAS         MOSUNNY   41  34  75 N6        30.16F                  
REDMOND        MOSUNNY   50  37  61 N9        30.11F                  
BEND           MOSUNNY   50  34  53 N7        30.10F                  
PRINEVILLE     MOSUNNY   48  36  61 CALM      30.11F                  
KLAMATH FALLS  PTSUNNY   66  27  23 SE18G36   29.97F                  
LAKEVIEW       MOSUNNY   57  31  37 E15G23    30.06S                  
HERMISTON      SUNNY     58  38  47 NE10      30.19F                  
PENDLETON      SUNNY     52  38  58 N8        30.18F                  
JOHN DAY       SUNNY     64  23  21 E9        30.14F                  
MEACHAM        SUNNY     54  22  28 MISG      30.16F                  
LA GRANDE      SUNNY     52  34  50 N9        30.20F                  
BAKER CITY     SUNNY     61  29  29 SE13      30.21F                  
BURNS          SUNNY     57  28  33 NE23G30   30.16F                  
ROME             N/A     65  17  15 E17       30.10F                  
ONTARIO        SUNNY     66  27  23 SE8       30.22F                  
$$